Deer Park, WA
on Tuesday, November 20, 2012

Tuesday
Previous Day Next Day
Daily Summary
 ActualAverageRecord
Temperature
Mean Temperature °F 32°F  
Max Temperature 48°F 39°F 55°F (2002)
Min Temperature 38°F 25°F 11°F (2013)
Degree Days
Heating Degree Days 22 33  
Month to date heating degree days 528 590  
Since 1 July heating degree days 1440 1658  
Cooling Degree Days 0 0  
Month to date cooling degree days 0 0  
Year to date cooling degree days 232 187  
Moisture
Dew Point 44°F   
Average Humidity 93    
Maximum Humidity 100    
Minimum Humidity 86    
Precipitation
Precipitation 0.44 in 0.12 in 0.44 in (2012)
Month to date precipitation 2.98 2.14  
Year to date precipitation 22.98 18.20  
Wind
Wind Speed 6 mph   
Max Wind Speed 17 mph   
Max Gust Speed 22 mph   
Visibility 8 miles   
Events Rain   

Key: T is trace of precipitation, MM is missing value
Source: NWS Daily Summary
Time(PST)TemperatureDew PointHumidity Pressure Visibility Wind DirectionWind SpeedGust SpeedPrecipitationEvents Conditions
12:35 AM 46.4°F 44.6°F 93% 29.78 in 9.0 miles South 9.2 mph - 0.02 in Rain Light Rain
12:40 AM 46.4°F 44.6°F 93% 29.78 in 10.0 miles South 9.2 mph - 0.02 in Rain Light Rain
12:44 AM 44.6°F 44.6°F 100% 29.78 in 10.0 miles South 10.4 mph - 0.02 in Rain Light Rain
12:53 AM 46.0°F 44.1°F 93% 29.81 in 9.0 miles South 11.5 mph - 0.03 in Rain Light Rain
1:10 AM 46.4°F 44.6°F 93% 29.79 in 10.0 miles South 9.2 mph - 0.01 in Rain Light Rain
1:53 AM 45.0°F 43.0°F 93% 29.81 in 10.0 miles SSW 5.8 mph - 0.02 in   Overcast
2:27 AM 44.6°F 42.8°F 93% 29.79 in 10.0 miles South 10.4 mph - 0.00 in   Overcast
2:53 AM 46.0°F 43.0°F 89% 29.81 in 10.0 miles SSW 9.2 mph - 0.00 in   Overcast
3:53 AM 46.0°F 43.0°F 89% 29.81 in 10.0 miles South 11.5 mph - N/A   Overcast
4:53 AM 45.0°F 44.1°F 97% 29.83 in 6.0 miles South 8.1 mph - 0.01 in Rain Rain
5:08 AM 44.6°F 44.6°F 100% 29.80 in 6.0 miles South 9.2 mph - 0.02 in Rain Light Rain
5:15 AM 44.6°F 44.6°F 100% 29.80 in 7.0 miles South 9.2 mph - 0.03 in Rain Light Rain
5:36 AM 44.6°F 44.6°F 100% 29.78 in 7.0 miles SSE 10.4 mph - 0.05 in Rain Light Rain
5:53 AM 45.0°F 44.1°F 97% 29.79 in 10.0 miles SSE 6.9 mph - 0.05 in Rain Light Rain
6:16 AM 44.6°F 44.6°F 100% 29.78 in 10.0 miles SSE 6.9 mph - 0.00 in   Overcast
6:32 AM 44.6°F 44.6°F 100% 29.77 in 10.0 miles SSE 9.2 mph - 0.00 in   Overcast
6:39 AM 44.6°F 44.6°F 100% 29.77 in 10.0 miles SSE 9.2 mph - 0.00 in   Overcast
6:53 AM 45.0°F 44.1°F 97% 29.79 in 10.0 miles SSE 8.1 mph - 0.00 in Rain Light Rain
7:42 AM 44.6°F 44.6°F 100% 29.77 in 6.0 miles SE 4.6 mph - 0.03 in Rain Rain
7:50 AM 44.6°F 44.6°F 100% 29.76 in 4.0 miles SE 6.9 mph - 0.05 in Rain Rain
7:53 AM 45.0°F 44.1°F 97% 29.77 in 4.0 miles SE 6.9 mph - 0.05 in Rain Rain
8:02 AM 44.6°F 44.6°F 100% 29.75 in 5.0 miles SE 5.8 mph - 0.01 in Rain Light Rain
8:53 AM 45.0°F 45.0°F 100% 29.78 in 4.0 miles SSE 6.9 mph - 0.10 in Rain Rain
9:13 AM 44.6°F 44.6°F 100% 29.74 in 6.0 miles SE 6.9 mph - 0.02 in Rain Light Rain
9:29 AM 44.6°F 44.6°F 100% 29.74 in 10.0 miles SE 10.4 mph - 0.02 in Rain Light Rain
9:42 AM 44.6°F 44.6°F 100% 29.74 in 8.0 miles South 3.5 mph - 0.03 in Rain Light Rain
9:53 AM 45.0°F 45.0°F 100% 29.77 in 5.0 miles South 5.8 mph - 0.04 in Rain Light Rain
10:20 AM 46.4°F 44.6°F 93% 29.75 in 10.0 miles SSE 6.9 mph - 0.02 in Rain Light Rain
10:33 AM 46.4°F 44.6°F 93% 29.73 in 9.0 miles SE 6.9 mph - 0.03 in Rain Light Rain
10:53 AM 46.0°F 45.0°F 96% 29.74 in 10.0 miles SE 9.2 mph - 0.03 in   Overcast
11:25 AM 46.4°F 44.6°F 93% 29.71 in 10.0 miles SE 9.2 mph - 0.00 in   Overcast
11:53 AM 46.9°F 45.0°F 93% 29.72 in 10.0 miles SSE 6.9 mph - 0.01 in Rain Light Rain
12:15 PM 46.4°F 44.6°F 93% 29.70 in 7.0 miles SSE 9.2 mph - 0.01 in Rain Rain
12:22 PM 46.4°F 44.6°F 93% 29.69 in 3.0 miles SE 15.0 mph - 0.04 in Rain Rain
12:34 PM 46.4°F 44.6°F 93% 29.69 in 3.0 miles SE 15.0 mph - 0.06 in Rain Rain
12:53 PM 46.0°F 45.0°F 96% 29.71 in 10.0 miles SSE 10.4 mph - 0.07 in Rain Light Rain
1:03 PM 46.4°F 44.6°F 93% 29.70 in 10.0 miles SSE 11.5 mph - 0.00 in   Overcast
1:13 PM 46.4°F 44.6°F 93% 29.69 in 10.0 miles SSE 9.2 mph - 0.00 in   Overcast
1:53 PM 46.9°F 46.0°F 97% 29.69 in 8.0 miles SE 9.2 mph - 0.02 in Rain Light Rain
2:53 PM 46.9°F 46.0°F 97% 29.70 in 10.0 miles SSE 3.5 mph - 0.01 in   Overcast
3:00 PM 46.4°F 46.4°F 100% 29.69 in 10.0 miles SSE 5.8 mph - N/A   Mostly Cloudy
3:07 PM 46.4°F 46.4°F 100% 29.69 in 10.0 miles South 5.8 mph - N/A   Mostly Cloudy
3:21 PM 46.4°F 44.6°F 93% 29.69 in 10.0 miles Variable 4.6 mph - N/A   Mostly Cloudy
3:49 PM 46.4°F 44.6°F 93% 29.69 in 10.0 miles South 8.1 mph - N/A   Overcast
3:53 PM 46.9°F 45.0°F 93% 29.70 in 10.0 miles SSE 6.9 mph - N/A   Mostly Cloudy
4:28 PM 46.4°F 44.6°F 93% 29.70 in 10.0 miles Calm Calm - N/A   Mostly Cloudy
4:53 PM 45.0°F 44.1°F 97% 29.73 in 10.0 miles Calm Calm - N/A   Mostly Cloudy
5:53 PM 39.9°F 39.9°F 100% 29.74 in 6.0 miles ESE 3.5 mph - N/A   Mostly Cloudy
6:50 PM 39.2°F 39.2°F 100% 29.72 in 1.5 miles NE 4.6 mph - N/A   Mostly Cloudy
6:53 PM 39.0°F 39.0°F 100% 29.75 in 0.8 miles NE 5.8 mph - N/A   Mostly Cloudy
7:12 PM 39.2°F 39.2°F 100% 29.72 in 1.5 miles NE 3.5 mph - N/A   Scattered Clouds
7:22 PM 39.2°F 39.2°F 100% 29.72 in 4.0 miles Calm Calm - N/A   Partly Cloudy
7:53 PM 44.1°F 41.0°F 89% 29.73 in 10.0 miles Calm Calm - N/A   Partly Cloudy
8:53 PM 45.0°F 41.0°F 86% 29.75 in 10.0 miles South 5.8 mph - N/A   Overcast
9:53 PM 41.0°F 39.0°F 93% 29.76 in 10.0 miles SSE 4.6 mph - N/A   Overcast
10:53 PM 39.9°F 39.0°F 97% 29.75 in 10.0 miles Calm Calm - N/A   Mostly Cloudy
11:53 PM 42.1°F 39.0°F 89% 29.74 in 10.0 miles South 4.6 mph - N/A   Mostly Cloudy
Moon Phase
Nov. 20 Nov. 28 Dec. 06 Dec. 13 Dec. 20
Sunrise:07:04 AM (PST) Moon Rise:12:24 PM (PST)11/20
Sunset:04:06 PM (PST) Moon Set:No Moon Set/

Copyright © 2014 The Weather Underground, Inc.